Regional Weather Roundup
Issued by NWS

Home | Current Version | Previous Version | Text Only | Print | Product List | Glossary Off
Versions: 1 2 3 4 5 6 7 8 9 10 11 12 13 14 15 16 17 18 19 20 21 22 23 24 25 26 27 28 29 30 31 32 33 34 35 36 37 38 39 40 41 42 43 44 45 46 47 48 49 50

020
ASUS43 KFSD 211702
RWRSD

WEATHER ROUNDUP FOR SOUTH DAKOTA
NATIONAL WEATHER SERVICE SIOUX FALLS SD
1200 PM CDT MON MAY 21 2018

NOTE: "FAIR" INDICATES FEW OR NO CLOUDS BELOW 12,000 FEET WITH NO
SIGNIFICANT WEATHER AND/OR OBSTRUCTIONS TO VISIBILITY.


SDZ001>005-009-010-012>017-211800-
NORTHWEST AND NORTH CENTRAL SOUTH DAKOTA

CITY           SKY/WX    TMP DP  RH WIND       PRES   REMARKS
FAITH            N/A     65  45  48 SE12      29.97F
MOBRIDGE       SUNNY     67  42  40 SE9       29.98F
$$

SDZ012>016-024>037-041>051-057-063-072>074-211800-
SOUTHWEST AND SOUTH CENTRAL SOUTH DAKOTA

CITY           SKY/WX    TMP DP  RH WIND       PRES   REMARKS
RAPID CTY ARPT SUNNY     66  51  58 S13G23    29.96F
PIERRE         SUNNY     65  45  48 VRB3      29.99F
CUSTER         SUNNY     61  43  51 VRB5      30.02S
ELLSWORTH AFB  SUNNY     66  52  60 S16       29.95F
PHILIP         SUNNY     68  49  50 S9        29.97F
PINE RIDGE     SUNNY     68  53  58 S10       29.98S
SPEARFISH      FAIR      63  48  59 E6        29.97S
WINNER         FAIR      68  43  40 S5        30.01S
$$

SDZ004>011-016>023-039-040-211800-
NORTHEAST SOUTH DAKOTA

CITY           SKY/WX    TMP DP  RH WIND       PRES   REMARKS
ABERDEEN       CLOUDY    66  53  63 VRB6      30.01F
WATERTOWN      CLOUDY    57  56  96 S6        30.02F
BROOKINGS      CLOUDY    59  55  87 S6        30.03F
SISSETON         N/A     63  54  72 E9        30.02F
$$

SDZ017-020-022-023-036>040-048>070-211800-
SOUTHEAST SOUTH DAKOTA

CITY           SKY/WX    TMP DP  RH WIND       PRES   REMARKS
SIOUX FALLS    CLOUDY    59  56  89 SW3       30.03S
HURON          CLOUDY    58  54  86 SW6       30.02S
CHAMBERLAIN    SUNNY     67  49  51 S5        30.00F
MITCHELL       CLOUDY    60  54  80 CALM      30.03F
YANKTON        CLOUDY    60  54  80 CALM      30.04S
$$

ABBREVIATIONS USED IN REMARKS
   TC - TEMPERATURE IN CELSIUS
  WCI - WIND CHILL INDEX
   HX - HEAT INDEX
  VSB - VISIBILITY





USA.gov is the U.S. government's official web portal to all federal, state and local government web resources and services.